CZ-3B DEB, 40845

Orbit data source: Space-Track

CZ-3B DEB, 40845 is space debris in HEO originally from a launch on Mon, 19 Dec 2011 UTC launched from the Xichang Space Center, China (XSC). Debris objects in space refer to the collection of defunct objects orbiting the Earth. Examples of debris include non-operational satellites, rocket bodies, and fragments generated from explosions, collisions, or faulty payload assembly.

Loading next visibility...
Identifier
40845, 2011-077AA
Orbit
HEO
Country
Flag of CNCN / PRC
Related business
Manufacturer
CALT
Mission
Spacecraft
Bus & Motor
Unknown
Mass
Unknown
Launch date (UTC)
2011-12-19 (15 years ago)
Launch vehicle
Unknown
Launch site
Xichang Space Center, China (XSC)
Object type
Payload
Rocket body
Debris
Shape & HBR
Unknown shape, 0.2 m
Radar Cross Section
Medium (>0.1 m² and <1 m²)

Expand to show TLE details & history
Last TLE update: 3 days ago

TLE from 3 days ago
0 CZ-3B DEB
1 40845U 11077AA  26170.32161030  .00000280  00000-0  14532-2 0  9996
2 40845  21.7803 135.8497 7373582 192.5040 126.5170  2.07679598 92362
Epoch: 2026-06-19T07:43Z
TLE epoch observation values (Epoch: 2026-06-19T07:43:07.129Z)
Latitude
-0.00007°
Longitude
112.46984°
Altitude
35,905.642 km
Speed
1.869 km/s
True Right ascension
09h 03m 12s
True Declination
0° 00' 00"
Sunlit
Object was in daylight at epoch
Visualization orbit readout
Latitude
Unknown
Longitude
Unknown
Altitude
Unknown
Speed
Unknown
Apparent Right ascension
Unknown
Apparent Declination
Unknown
Sunlit
N/A
Visualization observer readout
Local Sidereal Time
21:37:55
Azimuth
Unknown
Elevation
Unknown
Doppler factor
Unknown
Orbital elements
Apogee altitude
38,714.127 km
Perigee altitude
438.6 km
Semi-major axis
25,954.5 km
Eccentricity
0.73736
Inclination
21.7803°
RAAN
135.8497°
Arg. of periapsis
192.504°
True anomaly
167.50762°
Mean anomaly
126.517°
Eccentric anomaly
148.55603°
Mean motion
0.51907 °/min
Orbital period
693.55 mins
BSTAR
0.0014532
Loading maneuver chart data...
Computing Atmospheric mass density...
Loading historical data...
Loading historical data...
Loading historical data...
Loading historical data...
Loading historical data...
Loading historical data...
Loading historical data...

Documentation

Showing up to 5 results
|